Wind_Speed
15 14 12 10 9 9 9 9 9 11 11 10 11 9 12 14 17 18 19 16 13 13 11 12 11 11 10 8 6 6 5 3 2 2 4 5 5 3 2 3 5 6 6 6 5 4 4 4 3
15 14 13 12 11 11 10 9 7 8 8 8 9 10 10 12 14 16 18 17 15 13 13 12 11 9 9 9 9 5 2 1 0 1 1 2 2 3 2 2 6 7 6 6 5 5 4 5 5
16 15 14 13 12 12 11 9 6 7 7 7 7 10 13 13 13 14 17 17 16 13 11 9 9 8 8 8 8 6 7 4 2 2 1 2 2 1 1 1 4 7 8 8 6 6 6 6 7
17 16 15 14 12 11 10 9 7 6 6 7 8 9 10 11 11 11 13 14 14 14 11 9 6 5 4 3 3 3 5 6 5 3 2 2 3 4 1 3 5 7 7 8 8 8 9 9 9
18 16 16 14 13 12 11 10 8 7 6 6 7 8 9 7 9 9 10 9 9 9 8 7 7 5 3 3 2 2 2 6 6 4 4 4 4 4 6 5 5 7 9 10 10 10 10 11 12
21 19 18 16 15 13 12 11 10 10 9 7 6 6 5 6 6 6 6 5 4 5 5 4 5 4 4 2 2 4 3 2 5 6 5 5 7 8 6 7 7 8 10 12 13 14 14 14 15
24 22 21 19 17 15 13 13 13 13 12 11 9 8 6 6 5 5 4 3 2 3 3 3 4 3 3 2 2 3 5 3 2 4 5 7 7 9 11 11 10 10 10 13 16 17 17 16 17
27 25 23 22 20 18 16 15 15 13 11 10 9 8 7 6 6 6 5 4 3 2 1 1 3 2 2 1 2 1 2 4 6 4 4 5 8 10 12 12 12 13 14 14 16 19 20 19 21
30 27 25 23 21 19 16 14 14 13 12 10 8 7 7 5 4 3 2 2 0 1 0 1 1 2 3 3 3 4 3 4 6 7 7 6 7 9 10 14 16 17 17 17 18 20 22 23 23
32 30 27 23 20 19 17 16 17 16 14 11 10 9 7 6 5 4 3 3 2 2 3 3 3 3 3 3 3 5 7 7 8 8 8 10 11 11 12 13 14 16 19 22 22 22 23 24 25
32 32 29 26 25 22 20 19 18 17 16 14 12 10 9 8 7 6 4 5 3 3 3 1 3 4 4 4 5 7 8 7 8 8 11 11 13 15 16 16 17 17 18 20 22 25 25 25 26
35 32 30 29 28 26 23 22 20 20 18 16 14 12 11 11 10 10 8 8 8 8 7 5 5 4 5 6 6 7 8 10 9 10 11 12 14 16 18 20 21 23 22 21 22 23 25 26 26
38 36 33 32 30 27 24 23 21 21 19 18 17 16 14 14 13 13 13 14 14 14 12 9 11 9 9 9 9 9 9 11 13 14 15 16 18 19 19 21 23 26 27 28 26 26 26 27 28
40 38 36 35 32 29 27 26 24 23 24 22 21 20 18 18 16 17 18 19 19 19 17 16 17 16 16 17 15 14 14 15 16 18 18 19 20 22 23 24 25 26 27 29 32 32 33 33 32
43 42 40 38 35 33 30 29 24 28 26 26 26 24 23 22 21 23 25 24 22 22 23 23 22 22 21 22 23 21 21 20 21 22 22 23 24 25 25 26 27 29 31 31 31 32 34 37 39
47 45 44 41 39 35 34 30 30 31 31 31 30 30 28 27 27 29 29 26 27 25 26 26 26 26 27 28 28 26 26 26 27 28 27 26 27 27 28 28 30 32 33 34 36 36 36 37 40
50 49 46 43 40 39 39 35 35 35 35 36 35 34 33 32 32 35 31 28 28 28 30 31 32 31 33 34 33 32 32 31 33 32 33 34 32 32 33 33 34 36 37 38 39 39 41 42 41
48 47 46 45 44 46 46 41 40 39 40 39 38 37 36 37 38 38 34 33 32 33 33 34 35 36 37 37 36 36 36 37 38 38 37 39 39 39 40 40 40 41 41 42 44 44 45 46 46
52 50 50 50 50 49 49 47 43 43 43 40 40 41 42 43 42 40 38 39 38 38 39 39 38 38 38 39 40 41 41 42 43 42 44 44 44 45 48 48 48 48 46 47 47 47 49 49 50
53 53 53 52 52 52 52 52 47 43 46 44 43 43 44 45 44 43 43 43 43 43 43 43 43 43 42 42 42 44 44 45 47 49 49 51 52 53 54 54 54 54 53 54 53 51 53 52 53
54 54 52 53 53 54 54 53 52 47 46 45 46 45 46 45 45 45 46 47 48 48 47 47 46 47 47 47 48 49 50 51 53 55 56 55 56 57 58 58 59 58 58 57 57 57 57 56 57
57 54 53 55 54 55 56 57 54 49 45 46 46 48 47 48 48 49 49 49 50 50 50 51 51 52 53 53 53 53 54 56 58 59 59 60 59 59 60 60 60 60 61 60 61 59 59 59 59
54 51 51 52 54 56 58 61 58 52 50 45 45 49 50 51 52 52 53 53 54 54 54 54 55 56 56 57 58 59 61 61 60 60 62 63 62 61 60 62 63 63 63 63 64 64 61 61 59
53 53 52 54 58 62 61 60 63 60 56 54 52 49 49 52 54 56 58 60 58 58 58 59 59 60 60 60 61 62 61 62 63 64 64 64 63 62 62 63 64 65 65 65 65 66 65 63 61
59 57 57 60 60 63 63 62 63 67 61 57 56 52 52 55 57 60 62 64 66 66 65 63 62 62 61 61 62 64 65 65 65 65 64 62 62 60 61 63 63 63 63 63 64 65 67 66 64
55 57 59 61 66 65 67 71 69 65 64 59 56 52 55 56 55 56 58 59 61 62 62 63 64 64 63 64 65 65 65 65 66 65 63 61 59 60 60 60 62 63 64 67 67 69 69 71 70
58 63 56 56 61 65 68 69 68 61 56 55 56 55 56 54 53 55 57 59 61 62 62 63 63 65 66 65 64 63 60 60 60 60 59 59 59 60 61 62 61 61 64 63 66 69 68 68 69
51 52 54 57 60 62 65 63 58 56 52 53 54 54 54 56 60 63 62 61 62 62 62 62 62 61 60 57 56 55 55 53 52 52 52 53 55 59 62 63 62 62 65 65 68 70 70 69 67
54 55 54 52 54 56 59 62 57 54 53 54 55 56 57 59 62 63 64 64 63 61 60 59 55 53 52 51 51 50 48 48 49 49 49 50 52 55 56 57 59 64 64 62 63 63 70 67 66
54 53 54 57 58 57 55 62 54 54 55 56 56 57 58 60 62 64 65 64 61 59 55 51 49 48 48 49 48 47 48 48 48 49 50 52 54 55 56 57 57 59 63 63 63 64 64 66 66
Wind_Direction
191 193 192 179 163 141 121 109 107 97 86 76 87 89 89 88 89 85 79 74 77 80 90 92 85 85 89 91 98 100 103 97 90 69 76 74 70 51 58 136 163 179 185 175 176 176 187 224 236
191 194 197 198 168 153 139 129 127 119 110 97 89 86 90 96 98 99 91 84 85 79 94 81 73 83 94 86 86 68 90 119 151 27 356 64 80 64 43 162 168 179 194 205 199 191 218 238 247
198 202 200 195 176 170 152 145 141 119 117 121 111 102 100 100 89 96 101 94 92 93 92 95 87 69 67 66 62 46 30 25 327 285 312 318 345 90 66 220 187 190 193 210 214 216 226 240 253
206 206 205 201 191 180 168 161 161 143 130 123 135 130 123 113 105 100 107 105 102 99 104 113 118 118 107 100 64 42 28 21 20 332 310 329 340 318 270 223 218 217 211 212 224 230 234 243 250
207 206 207 204 200 193 182 178 175 172 179 155 140 140 140 128 122 121 123 129 124 116 113 104 103 117 150 160 170 123 58 7 6 356 318 308 312 325 338 313 257 238 234 235 235 241 250 258 257
213 214 217 212 208 200 192 193 197 200 205 195 179 170 175 158 141 127 126 130 144 139 132 130 151 109 93 115 217 242 242 298 340 347 323 302 303 313 323 327 320 286 268 261 253 245 245 252 262
219 217 218 220 217 213 204 205 209 213 218 210 205 196 197 179 169 165 158 155 106 76 83 90 116 149 164 159 143 239 245 246 245 308 309 306 294 301 308 311 312 310 296 277 271 268 266 262 265
227 228 226 224 222 222 218 221 221 213 205 203 195 201 194 185 179 190 192 193 182 158 149 35 41 18 70 234 213 241 265 256 262 273 273 282 303 295 288 290 295 299 298 293 282 276 273 269 270
228 230 230 226 226 221 210 207 213 217 211 207 199 203 200 199 184 178 173 206 217 89 271 312 318 11 23 350 307 287 280 286 274 276 272 263 259 279 297 297 294 294 298 297 296 289 279 275 273
224 226 224 217 210 208 209 211 217 218 219 217 216 217 223 229 224 213 227 258 302 12 351 347 348 350 345 337 334 333 330 308 297 289 281 274 272 273 273 280 286 295 300 300 299 298 297 286 278
214 216 218 216 209 213 218 214 216 218 216 216 218 221 225 240 250 260 249 243 255 266 266 312 326 339 338 343 342 346 344 341 334 314 298 292 285 280 279 280 283 283 283 290 293 293 293 294 290
213 216 219 221 219 218 218 219 219 221 222 227 230 232 238 244 245 249 253 260 257 255 253 255 259 275 296 319 334 338 339 333 329 315 307 307 304 296 291 286 282 280 280 280 282 289 290 287 287
216 219 222 225 227 223 220 221 221 228 229 231 237 241 241 243 247 252 258 259 259 264 264 270 274 279 286 294 296 301 311 318 319 318 315 310 308 304 300 300 294 289 286 286 282 279 280 284 283
219 221 223 225 227 228 227 229 227 230 236 236 240 245 248 251 255 258 258 261 264 267 270 276 282 284 288 291 291 291 297 303 306 308 309 307 304 301 300 299 296 290 289 292 293 289 284 280 277
219 222 225 227 227 228 231 234 233 237 243 247 245 246 248 254 257 258 260 262 265 269 277 282 285 285 287 289 291 295 294 295 297 296 296 298 297 296 298 298 295 292 292 290 286 287 288 286 282
224 225 229 227 230 232 236 234 239 242 245 248 252 252 251 253 256 258 260 264 270 275 278 280 280 283 283 283 284 284 286 288 289 289 289 286 287 290 292 294 290 288 288 289 288 286 284 281 283
226 228 230 231 234 237 241 237 240 244 247 249 251 254 256 256 256 255 260 265 269 269 270 274 277 278 278 279 282 284 283 283 284 284 286 289 288 287 286 285 285 287 286 284 284 282 283 283 282
230 234 235 237 236 238 240 240 242 247 251 253 256 259 261 262 261 263 265 267 269 269 270 269 272 274 276 278 279 280 280 280 281 284 284 284 287 286 283 281 280 283 283 284 285 284 282 280 279
231 233 235 237 239 241 244 248 245 249 253 256 259 262 263 264 266 269 270 272 273 272 272 273 272 272 273 275 278 279 280 279 281 281 281 280 280 280 284 285 286 286 281 280 280 280 281 279 276
234 235 238 240 242 244 248 250 250 250 255 258 260 262 264 267 269 270 271 273 276 276 275 274 276 277 277 276 275 276 277 279 280 280 279 281 282 281 285 287 286 286 284 283 283 281 281 280 277
238 238 240 243 245 247 248 249 251 250 254 261 264 266 270 272 271 270 271 271 273 274 275 276 277 278 277 277 278 279 280 280 280 281 282 280 280 280 280 281 282 283 284 283 283 283 282 283 279
241 242 243 244 243 244 248 249 251 253 255 259 266 270 272 272 271 270 269 270 272 274 277 278 278 278 279 279 279 279 280 281 282 282 281 279 278 274 275 275 275 276 277 277 278 278 279 279 279
244 243 244 246 246 245 246 251 254 255 260 263 265 270 271 271 270 270 272 273 273 274 275 276 277 277 279 280 280 281 282 282 281 281 280 278 276 272 270 269 269 268 270 271 272 273 273 273 272
241 243 245 247 247 248 252 255 257 261 267 269 268 269 269 269 269 271 271 272 273 273 274 275 276 275 277 278 280 282 282 281 280 280 278 277 275 273 270 269 268 267 266 268 269 270 271 272 271
244 245 246 247 249 254 256 257 262 265 267 270 271 271 270 269 270 271 272 273 275 276 277 277 278 280 282 283 284 284 283 282 281 280 279 277 276 271 268 268 268 269 267 267 267 269 271 272 270
249 252 254 257 258 259 258 259 261 263 268 270 273 273 272 273 271 271 271 271 272 275 278 280 282 283 285 285 285 284 283 282 281 280 278 276 273 270 271 271 271 270 269 268 268 266 270 271 270
247 250 255 256 257 258 259 260 261 263 268 273 275 273 273 274 274 274 274 274 277 280 282 283 284 284 284 284 284 283 282 280 279 277 275 274 272 270 271 272 271 274 272 274 273 271 270 270 271
246 245 245 249 251 254 260 263 266 267 267 267 269 271 273 275 279 281 281 283 283 283 283 284 285 284 283 282 282 281 280 278 277 276 275 275 274 273 272 272 272 274 276 277 277 274 271 268 269
251 251 251 255 257 261 262 259 260 264 266 270 274 277 278 279 279 281 282 282 283 283 284 283 282 281 281 279 277 277 279 279 280 279 278 276 277 276 275 274 275 274 273 276 278 278 266 270 269
248 248 248 249 252 254 260 260 267 268 270 272 273 275 275 274 275 276 278 282 284 283 282 282 281 279 278 279 281 282 282 281 280 280 279 278 276 277 278 276 278 279 275 271 275 273 275 277 272
Height
5885 5886 5888 5889 5893 5891 5891 5892 5892 5892 5892 5892 5891 5890 5889 5888 5887 5889 5885 5884 5884 5884 5884 5883 5883 5883 5883 5884 5884 5884 5884 5883 5883 5883 5882 5881 5881 5881 5881 5881 5882 5883 5884 5884 5885 5885 5885 5886 5885
5883 5885 5886 5888 5890 5890 5891 5891 5891 5891 5892 5892 5891 5890 5889 5888 5888 5887 5885 5885 5884 5885 5884 5885 5886 5885 5884 5885 5885 5885 5885 5885 5883 5883 5883 5882 5881 5881 5881 5881 5881 5882 5884 5884 5885 5885 5885 5885 5885
5881 5884 5886 5887 5888 5888 5889 5889 5891 5890 5890 5891 5891 5890 5889 5889 5889 5888 5886 5886 5885 5885 5886 5885 5885 5886 5886 5885 5885 5885 5886 5885 5885 5884 5884 5883 5882 5881 5880 5880 5880 5881 5882 5883 5883 5884 5884 5884 5883
5880 5883 5884 5885 5886 5887 5888 5889 5889 5889 5889 5890 5890 5890 5889 5888 5888 5888 5887 5886 5885 5885 5885 5884 5884 5884 5884 5884 5884 5885 5885 5885 5885 5884 5884 5883 5882 5882 5881 5880 5880 5880 5880 5881 5882 5882 5883 5882 5882
5878 5880 5882 5883 5884 5885 5886 5886 5887 5887 5888 5888 5889 5889 5889 5888 5888 5887 5886 5886 5885 5885 5885 5884 5884 5883 5883 5883 5883 5882 5883 5884 5884 5884 5884 5884 5883 5882 5882 5881 5879 5879 5878 5879 5879 5880 5881 5881 5881
5876 5878 5880 5881 5882 5883 5884 5885 5885 5885 5886 5886 5887 5888 5888 5888 5887 5887 5886 5886 5885 5884 5884 5884 5884 5883 5883 5883 5882 5881 5880 5880 5881 5882 5882 5882 5883 5882 5881 5881 5880 5880 5880 5879 5878 5877 5877 5877 5878
5872 5875 5876 5878 5879 5881 5882 5882 5883 5883 5884 5884 5884 5885 5886 5886 5886 5886 5886 5886 5886 5885 5885 5884 5883 5883 5882 5882 5881 5881 5880 5879 5878 5878 5879 5880 5880 5880 5881 5880 5879 5879 5878 5878 5877 5877 5876 5875 5874
5867 5870 5872 5874 5876 5878 5879 5880 5880 5881 5881 5882 5882 5883 5884 5884 5884 5885 5885 5885 5885 5885 5885 5884 5883 5883 5881 5881 5880 5880 5879 5878 5878 5876 5876 5877 5878 5878 5878 5878 5878 5877 5876 5876 5875 5874 5873 5873 5872
5863 5866 5868 5870 5872 5875 5876 5877 5878 5879 5879 5880 5880 5881 5882 5882 5883 5883 5883 5883 5883 5883 5883 5883 5882 5881 5881 5880 5879 5879 5878 5878 5877 5876 5875 5874 5873 5874 5875 5875 5875 5875 5873 5873 5872 5871 5870 5869 5868
5857 5860 5863 5866 5868 5871 5873 5875 5876 5876 5877 5879 5879 5879 5880 5881 5881 5882 5882 5882 5882 5882 5882 5881 5880 5879 5878 5878 5877 5877 5877 5877 5876 5876 5874 5873 5872 5871 5870 5870 5870 5871 5870 5869 5868 5867 5866 5865 5864
5853 5855 5858 5862 5864 5867 5869 5871 5872 5873 5876 5876 5877 5877 5878 5879 5879 5880 5881 5881 5881 5880 5879 5879 5878 5878 5877 5876 5875 5875 5875 5874 5874 5874 5873 5871 5871 5870 5869 5868 5867 5866 5865 5865 5864 5863 5862 5860 5859
5848 5850 5853 5856 5859 5862 5865 5867 5869 5870 5872 5873 5874 5875 5876 5876 5877 5877 5877 5878 5877 5877 5877 5877 5876 5875 5875 5874 5873 5872 5871 5870 5869 5869 5869 5868 5868 5867 5866 5865 5864 5862 5861 5860 5858 5858 5857 5856 5855
5840 5844 5847 5850 5853 5857 5860 5862 5864 5865 5868 5869 5870 5872 5872 5873 5874 5875 5874 5874 5873 5873 5873 5874 5874 5873 5872 5871 5870 5869 5868 5867 5866 5865 5865 5865 5863 5862 5862 5860 5859 5858 5857 5856 5854 5852 5851 5850 5849
5834 5838 5841 5844 5848 5852 5855 5856 5859 5861 5861 5864 5865 5866 5868 5869 5870 5871 5870 5869 5870 5870 5870 5871 5870 5870 5869 5868 5867 5867 5865 5864 5863 5862 5861 5860 5859 5857 5856 5855 5854 5852 5851 5850 5850 5848 5846 5844 5842
5827 5831 5834 5838 5842 5845 5849 5850 5855 5854 5856 5858 5859 5862 5863 5864 5865 5865 5863 5865 5866 5866 5866 5866 5866 5866 5865 5864 5863 5864 5861 5861 5859 5857 5856 5855 5853 5851 5850 5849 5847 5845 5844 5843 5842 5841 5841 5840 5837
5820 5823 5826 5833 5835 5839 5841 5847 5847 5847 5850 5851 5853 5854 5856 5859 5859 5858 5859 5861 5861 5862 5861 5860 5860 5860 5858 5858 5857 5857 5856 5854 5852 5850 5850 5848 5846 5845 5843 5842 5840 5839 5837 5836 5835 5833 5832 5830 5829
5811 5815 5820 5826 5829 5832 5833 5839 5839 5840 5842 5843 5846 5848 5850 5851 5852 5851 5854 5856 5857 5856 5855 5854 5853 5853 5851 5850 5850 5850 5849 5848 5845 5844 5842 5840 5840 5838 5835 5834 5832 5830 5829 5828 5826 5824 5822 5820 5819
5808 5811 5815 5818 5821 5820 5822 5829 5832 5834 5833 5836 5838 5841 5842 5843 5843 5844 5848 5849 5849 5848 5848 5848 5846 5844 5843 5843 5842 5842 5841 5840 5838 5836 5835 5832 5830 5828 5825 5823 5822 5820 5819 5818 5816 5815 5813 5812 5809
5797 5801 5805 5808 5809 5811 5814 5817 5824 5824 5826 5828 5831 5832 5833 5833 5835 5838 5839 5839 5839 5839 5839 5838 5838 5837 5837 5835 5834 5832 5831 5830 5828 5827 5824 5821 5819 5816 5813 5813 5811 5810 5809 5806 5806 5805 5803 5801 5798
5787 5791 5795 5798 5799 5802 5803 5805 5811 5818 5816 5819 5821 5823 5824 5825 5827 5828 5829 5829 5828 5828 5828 5827 5827 5826 5826 5825 5824 5823 5821 5819 5818 5816 5814 5811 5808 5806 5804 5802 5800 5799 5798 5796 5794 5793 5791 5790 5787
5776 5780 5784 5787 5789 5790 5792 5795 5797 5805 5808 5810 5810 5812 5814 5817 5818 5818 5817 5817 5817 5816 5816 5816 5815 5815 5814 5813 5811 5810 5809 5808 5806 5804 5802 5800 5797 5794 5792 5790 5787 5786 5785 5785 5782 5781 5779 5778 5775
5763 5769 5771 5773 5775 5778 5779 5780 5786 5794 5799 5799 5800 5800 5803 5804 5805 5805 5805 5805 5806 5806 5805 5804 5802 5801 5800 5799 5797 5796 5795 5794 5792 5790 5788 5786 5784 5781 5779 5777 5775 5773 5770 5769 5767 5766 5765 5763 5761
5753 5756 5757 5760 5762 5764 5767 5767 5777 5783 5786 5789 5790 5789 5791 5791 5791 5791 5792 5792 5792 5792 5791 5791 5789 5788 5787 5785 5783 5782 5780 5779 5777 5775 5773 5769 5767 5765 5763 5761 5759 5758 5755 5754 5751 5749 5749 5747 5747
5740 5743 5744 5746 5746 5747 5756 5761 5768 5770 5775 5774 5777 5780 5781 5779 5778 5779 5778 5777 5777 5777 5777 5776 5776 5775 5774 5772 5769 5767 5765 5763 5761 5757 5755 5753 5751 5748 5746 5745 5745 5743 5741 5739 5736 5734 5732 5732 5732
5726 5728 5731 5730 5731 5737 5742 5747 5761 5754 5758 5759 5763 5765 5766 5766 5766 5764 5762 5761 5761 5760 5759 5758 5758 5757 5756 5755 5753 5750 5747 5744 5742 5739 5737 5735 5733 5732 5731 5730 5729 5728 5726 5725 5722 5720 5719 5717 5716
5716 5717 5720 5717 5718 5724 5727 5729 5739 5745 5741 5743 5746 5750 5750 5749 5749 5748 5746 5745 5744 5743 5742 5741 5741 5740 5738 5735 5733 5730 5728 5726 5724 5722 5720 5718 5717 5715 5714 5713 5713 5711 5710 5708 5706 5705 5703 5701 5700
5702 5700 5708 5705 5704 5703 5708 5719 5723 5730 5732 5731 5731 5732 5730 5731 5731 5729 5729 5729 5729 5728 5727 5725 5724 5722 5719 5716 5713 5712 5711 5709 5708 5705 5703 5701 5700 5699 5697 5696 5696 5694 5693 5691 5689 5689 5688 5684 5683
5686 5691 5688 5687 5689 5689 5697 5703 5716 5718 5717 5716 5716 5716 5716 5715 5712 5708 5708 5710 5710 5710 5709 5707 5706 5704 5701 5699 5697 5696 5694 5692 5691 5690 5688 5686 5684 5683 5682 5680 5678 5677 5676 5675 5674 5673 5671 5668 5668
5676 5675 5677 5678 5680 5680 5684 5687 5704 5707 5704 5702 5702 5701 5700 5699 5698 5694 5690 5690 5691 5692 5692 5690 5689 5688 5686 5685 5683 5681 5680 5679 5676 5674 5673 5671 5669 5667 5666 5663 5661 5660 5658 5657 5656 5654 5653 5651 5651
5659 5663 5663 5663 5669 5667 5670 5677 5693 5693 5691 5691 5690 5688 5686 5685 5684 5681 5677 5673 5673 5673 5673 5674 5673 5673 5671 5670 5668 5667 5666 5664 5662 5661 5659 5657 5655 5653 5652 5649 5647 5644 5642 5640 5638 5638 5636 5634 5634